| time (UTC) | temp C | wind direction | speed KPH | gust KPH | rain 1hr cm | rain 24hr cm | rain mn cm | humidity % | barometer mb |
| 20260504044537 | 11 | 225 | 0.0 | 0.0 | 0.00 | 0.00 | 0.00 | 55 | 997.7 |
| 20260504043033 | 11 | 228 | 0.0 | 0.0 | 0.00 | 0.00 | 0.00 | 56 | 998.2 |
| 20260504041513 | 11 | 236 | 0.0 | 0.0 | 0.00 | 0.00 | 0.00 | 56 | 998.5 |
| 20260504040054 | 10 | 236 | 0.0 | 0.0 | 0.00 | 0.00 | 0.00 | 56 | 998.8 |
| 20260504034552 | 10 | 236 | 0.0 | 0.0 | 0.00 | 0.00 | 0.00 | 56 | 999.2 |
| 20260504033032 | 10 | 236 | 0.0 | 0.0 | 0.00 | 0.00 | 0.00 | 55 | 999.6 |
| 20260504031532 | 10 | 236 | 0.0 | 0.0 | 0.00 | 0.00 | 0.00 | 53 | 1000.0 |
| 20260504030015 | 11 | 236 | 0.0 | 0.0 | 0.00 | 0.00 | 0.00 | 50 | 1000.2 |
| 20260504024508 | 11 | 236 | 0.0 | 0.0 | 0.00 | 0.00 | 0.00 | 48 | 1000.4 |
| 20260504023045 | 12 | 236 | 0.0 | 0.0 | 0.00 | 0.00 | 0.00 | 45 | 1000.6 |
| 20260504021542 | 12 | 236 | 0.0 | 0.0 | 0.00 | 0.00 | 0.00 | 41 | 1000.6 |
| 20260504020023 | 13 | 236 | 0.0 | 0.0 | 0.00 | 0.00 | 0.00 | 39 | 1000.8 |
| 20260504014524 | 14 | 236 | 0.0 | 0.0 | 0.00 | 0.00 | 0.00 | 37 | 1000.8 |
| 20260504013116 | 16 | 236 | 0.0 | 0.0 | 0.00 | 0.00 | 0.00 | 34 | 1000.9 |
| 20260504011551 | 17 | 236 | 0.0 | 0.0 | 0.00 | 0.00 | 0.00 | 31 | 1000.9 |
| 20260504010029 | 18 | 236 | 0.0 | 0.0 | 0.00 | 0.00 | 0.00 | 29 | 1000.9 |
| 20260504004532 | 18 | 235 | 1.6 | 0.0 | 0.00 | 0.00 | 0.00 | 28 | 1000.9 |
| 20260504003008 | 19 | 273 | 1.6 | 0.0 | 0.00 | 0.00 | 0.00 | 28 | 1001.2 |
| 20260504001504 | 20 | 263 | 1.6 | 0.0 | 0.00 | 0.00 | 0.00 | 28 | 1001.3 |
| 20260504000046 | 20 | 260 | 3.2 | 0.0 | 0.00 | 0.00 | 0.00 | 26 | 1001.2 |
| 20260503234545 | 20 | 217 | 3.2 | 0.0 | 0.00 | 0.00 | 0.00 | 27 | 1001.4 |
| 20260503233026 | 20 | 273 | 1.6 | 0.0 | 0.00 | 0.00 | 0.00 | 28 | 1001.4 |
| 20260503231525 | 20 | 265 | 3.2 | 0.0 | 0.00 | 0.00 | 0.00 | 26 | 1001.4 |
| 20260503230006 | 20 | 261 | 6.4 | 0.0 | 0.00 | 0.00 | 0.00 | 25 | 1001.5 |
| 20260503224505 | 20 | 300 | 6.4 | 0.0 | 0.00 | 0.00 | 0.00 | 27 | 1001.7 |
| 20260503223047 | 20 | 279 | 6.4 | 0.0 | 0.00 | 0.00 | 0.00 | 27 | 1001.8 |
| 20260503221545 | 21 | 269 | 6.4 | 0.0 | 0.00 | 0.00 | 0.00 | 25 | 1001.9 |
| 20260503220029 | 20 | 315 | 6.4 | 0.0 | 0.00 | 0.00 | 0.00 | 26 | 1002.1 |
| 20260503214523 | 20 | 309 | 4.8 | 0.0 | 0.00 | 0.00 | 0.00 | 27 | 1002.2 |
| 20260503213007 | 20 | 270 | 4.8 | 0.0 | 0.00 | 0.00 | 0.00 | 26 | 1002.4 |
| 20260503211502 | 20 | 308 | 4.8 | 0.0 | 0.00 | 0.00 | 0.00 | 26 | 1002.5 |
| 20260503210041 | 20 | 290 | 3.2 | 0.0 | 0.00 | 0.00 | 0.00 | 27 | 1002.8 |
| 20260503204539 | 20 | 311 | 9.7 | 0.0 | 0.00 | 0.00 | 0.00 | 26 | 1003.0 |
| 20260503203041 | 20 | 305 | 9.7 | 0.0 | 0.00 | 0.00 | 0.00 | 26 | 1003.2 |
| 20260503201519 | 20 | 321 | 8.0 | 0.0 | 0.00 | 0.00 | 0.00 | 26 | 1003.3 |
| 20260503200002 | 20 | 300 | 4.8 | 0.0 | 0.00 | 0.00 | 0.00 | 25 | 1003.3 |
| 20260503194600 | 19 | 252 | 6.4 | 0.0 | 0.00 | 0.00 | 0.00 | 24 | 1003.5 |
| 20260503193040 | 19 | 333 | 4.8 | 0.0 | 0.00 | 0.00 | 0.00 | 24 | 1003.6 |
| 20260503191546 | 18 | 307 | 3.2 | 0.0 | 0.00 | 0.00 | 0.00 | 25 | 1003.7 |
| 20260503190034 | 18 | 313 | 8.0 | 0.0 | 0.00 | 0.00 | 0.00 | 22 | 1004.1 |
| 20260503184524 | 18 | 305 | 11.3 | 0.0 | 0.00 | 0.00 | 0.00 | 23 | 1004.2 |
| 20260503183002 | 18 | 336 | 8.0 | 0.0 | 0.00 | 0.00 | 0.00 | 24 | 1004.3 |
| 20260503181605 | 19 | 315 | 4.8 | 0.0 | 0.00 | 0.00 | 0.00 | 28 | 1004.2 |
| 20260503180041 | 18 | 315 | 8.0 | 0.0 | 0.00 | 0.00 | 0.00 | 31 | 1004.3 |
| 20260503174539 | 18 | 325 | 8.0 | 0.0 | 0.00 | 0.00 | 0.00 | 30 | 1004.4 |
| 20260503173022 | 18 | 306 | 6.4 | 0.0 | 0.00 | 0.00 | 0.00 | 32 | 1004.4 |
| 20260503171519 | 18 | 304 | 6.4 | 0.0 | 0.00 | 0.00 | 0.00 | 33 | 1004.5 |
| 20260503120111 | 3 | 121 | 0.0 | 0.0 | 0.00 | 0.00 | 0.00 | 91 | 1003.3 |
| 20260503100105 | 5 | 121 | 0.0 | 0.0 | 0.00 | 0.00 | 0.00 | 80 | 1002.7 |
| 20260503081527 | 9 | 121 | 0.0 | 0.0 | 0.00 | 0.00 | 0.00 | 63 | 1003.3 |